Dauntless Aviation
Airports North America Mexico
MX84

Purépecha Airport

Pátzcuaro, MEXICO

Airport Info
Suggest Updated Information for this Airport

Location

Latitude / Longitude: 19°32'44"N / 101°34'31"W
  19°32.742'N / 101°34.518'W
  19.5457 / -101.5753
Satellite photo at:
Airport distance calculator
From:
Weather Reports

METAR

MMMM
36.5nm NE
MMMM 220249Z 19006KT 6SM FEW040 FEW200 25/09 A3006 RMK SLP028 52011 966 8/402 HZY

TAF

MMPN
26.8nm SW
TAF MMPN 211621Z 2118/2218 18006KT 4SM HZ SCT030 SCT300 FM212100 18012KT 6SM HZ SCT030CB BKN300 FM220200 00000KT 6SM HZ SCT080 BKN300 FM221200 00000KT 5SM HZ SCT300
MMMM
36.5nm NE
TAF MMMM 212306Z 2200/2306 30010KT P6SM SCT040 FM220200 00000KT 6SM HZ SCT200 FM221300 00000KT 5SM HZ SKC FM222000 23010KT P6SM SCT030 FM230300 00000KT P6SM SKC
Safelog

 

Dauntless Aviation

© 2007-2019 Dauntless Aviation, all rights reserved
Information provided via PilotNav comes from a variety of official and unofficial data sources. As errors are possible, do not use PilotNav for primary flight planning purposes. Verify any information that you receive via PilotNav with current and canonical charts and other official documents. The material in this database is subject to database copyrights held by Dauntless Aviation and may not be copied without the express permission of Dauntless Aviation - licenses for use of part of all of this data are available for purchase; enquire via the Dauntless Aviation helpdesk. A number of mechanisms and markers exist in the database to protect against and identify infringement / copyright. Automated queries against this website are stictly prohibited, and all activity is logged and analyzed.